CAPE
0 0 0 0 0 0 0 0 0 0 0 0 0 0 0 0 0 6 5 0 0 1
0 0 0 0 0 0 0 0 0 0 0 0 0 3 2 0 13 0 0 0 3 0
0 0 0 0 0 0 0 0 0 0 0 0 0 17 13 22 14 16 26 11 0 1
0 0 0 0 0 0 0 0 0 0 0 0 0 0 1 7 1 37 5 3 1 0
0 0 0 0 0 0 0 0 0 0 0 0 5 2 0 4 7 19 5 3 3 0
0 0 0 0 0 0 0 0 0 0 0 4 0 5 3 9 8 2 2 1 0 0
0 0 0 0 0 0 0 0 0 0 3 3 0 1 2 1 0 0 2 0 0 0
0 0 0 0 0 0 0 0 0 0 6 12 17 8 0 0 0 0 0 0 0 0
0 0 0 0 0 0 0 0 0 0 5 7 31 0 0 0 0 0 0 0 0 0
0 0 0 0 0 0 0 0 0 2 1 1 0 0 0 0 0 0 0 0 0 0
0 0 0 0 0 0 0 0 0 2 2 1 0 0 0 0 0 0 0 0 0 0
0 0 0 0 0 0 0 0 0 5 2 0 0 0 0 0 0 0 0 0 0 0
0 0 0 0 0 0 0 0 0 3 0 0 0 0 0 0 0 0 0 0 0 0
0 0 0 0 0 0 0 0 0 0 0 0 0 0 0 0 0 0 0 0 0 0
CIN
0 0 0 0 0 0 0 0 0 0 0 0 0 0 0 0 0 -10 -5 0 -13 -2
0 0 0 0 0 0 0 0 0 0 0 0 -1 -3 -14 -2 -3 -1 -22 -5 -42 0
0 0 0 0 0 0 0 0 0 0 0 0 0 -5 -5 -2 0 -2 -8 -4 -1 -4
0 0 0 0 0 0 0 0 0 0 0 0 0 0 -5 -3 -4 -5 -22 -17 -13 0
0 0 0 0 0 0 0 0 0 0 0 0 -2 -6 0 -5 -4 -13 -38 -55 -25 0
0 0 0 0 0 0 0 0 0 0 0 -1 0 -6 -7 -4 -4 -15 -11 -9 0 0
0 0 0 0 0 0 0 0 0 0 -1 -5 0 -3 -3 -2 0 -4 -6 -1 0 0
0 0 0 0 0 0 0 0 0 0 -2 -2 -10 -4 0 0 0 0 0 0 0 0
0 0 0 0 0 0 0 0 0 0 -2 -3 -5 0 0 0 0 0 0 0 0 0
0 0 0 0 0 0 0 0 0 -2 -4 -6 0 0 0 0 0 0 0 0 0 0
0 0 0 0 0 0 0 0 -4 -5 -7 -5 0 0 0 0 0 0 0 0 0 0
0 0 0 0 0 0 0 0 0 -3 -9 0 0 0 0 0 0 0 0 0 0 0
0 0 0 0 0 0 0 0 0 -3 0 0 0 0 0 0 0 0 0 0 0 0
0 0 0 0 0 0 0 0 0 0 0 0 0 0 0 0 0 0 0 0 0 0
Wind_Speed
13 16 19 21 25 26 27 28 29 30 30 29 27 28 29 29 30 28 28 28 27 31
14 17 19 21 24 25 26 27 29 30 29 29 25 26 27 28 28 29 28 26 26 26
14 16 18 21 23 25 25 27 28 29 28 28 28 24 26 29 29 30 28 25 25 26
14 15 18 20 22 24 25 27 29 28 28 27 28 28 30 30 31 27 28 23 26 27
14 16 18 20 22 23 26 27 28 28 27 27 28 29 31 30 30 31 31 29 26 26
15 16 19 21 23 24 26 28 28 28 28 28 29 29 26 26 28 30 26 24 25 27
15 16 19 22 23 25 26 28 30 28 28 27 28 27 28 26 30 28 26 24 24 25
15 18 21 22 24 27 26 28 28 29 28 26 27 26 26 27 28 27 26 23 25 26
17 21 22 26 26 24 25 27 28 30 29 29 25 23 25 23 24 25 24 24 26 27
20 22 27 24 23 26 28 28 28 28 29 30 26 23 21 21 23 22 22 25 26 26
22 25 23 26 26 26 26 27 28 29 30 29 25 21 20 20 21 21 23 25 24 24
22 26 26 28 29 30 29 29 27 28 29 26 21 18 17 19 20 21 24 23 22 22
30 29 28 30 31 31 32 32 31 29 26 24 20 16 15 17 20 22 23 22 22 22
23 26 28 31 31 33 35 32 29 26 24 22 18 14 12 15 18 21 21 21 21 20
Wind_Direction
355 350 349 347 346 345 344 344 345 347 347 348 351 349 349 347 344 344 341 340 339 337
347 347 346 347 347 348 346 344 346 347 347 347 347 347 347 344 343 344 345 344 339 340
340 342 345 346 346 346 345 345 345 346 346 346 347 346 344 343 343 342 343 342 342 346
333 337 339 343 345 345 345 345 345 345 346 346 345 344 343 343 343 343 345 344 344 339
329 333 335 340 343 343 342 343 344 344 344 343 343 347 345 344 344 343 347 346 347 344
323 330 333 336 339 340 341 341 342 341 340 342 345 344 344 344 347 346 348 350 346 340
319 328 333 335 336 337 338 338 338 337 337 341 344 343 344 348 350 350 349 348 346 342
325 328 331 334 333 332 332 334 334 335 335 338 342 342 345 345 349 349 348 349 347 345
329 329 333 332 329 331 329 330 333 333 334 336 338 344 344 350 350 349 349 349 346 345
327 330 326 328 330 328 326 327 330 331 333 333 336 342 348 352 350 349 350 347 347 346
327 326 324 325 326 329 332 331 330 330 331 333 339 343 348 350 351 349 349 348 348 347
323 332 328 329 329 327 331 331 331 331 332 337 344 350 350 352 352 350 348 349 350 349
331 324 332 330 330 330 329 331 332 334 338 341 344 348 350 351 352 348 348 351 351 352
328 331 328 328 332 331 328 331 334 336 340 344 347 347 348 352 353 350 351 352 353 357